User: anonymous   Login
Location: Darlington Observatory
(36.4817°N, 105.8156°W)
Time: 18:34:02
(UTC-07:00)
Language:

MOS 1 - Orbit

View from above orbital plane
View from above orbital plane
View from above satellite
View from above satellite

Ground track
Ground track

The orbit data is extracted from the following two-line orbital elements,

1 17527U 87018A   17345.94726519 -.00000199 +00000-0 -99306-4 0  9991
2 17527 099.2584 003.1730 0008869 156.6237 262.2661 14.02492068574160
Epoch (UTC): 11 December 2017 22:44:03
Eccentricity: 0.0008869
inclination: 99.2584°
perigee height: 879 km
apogee height: 891 km
right ascension of ascending node: 3.1730°
argument of perigee: 156.6237°
revolutions per day: 14.02492068
mean anomaly at epoch: 262.2661°
orbit number at epoch: 57416

The dashed part of the orbit path shows where the satellite is in the earth's shadow,  

DLR